RH
91 97 94 88 71 60 60 59 60 64 66 72 72 78 77 74 75 65 66 55 45 39 39 35 30 26 25 24 20 19 19 20 18 17 19 20 22 24 26 29 30 33 32
75 68 58 56 55 55 58 60 64 83 89 86 87 75 64 53 49 44 41 39 32 26 24 24 20 19 17 17 16 17 15 15 13 12 14 17 20 21 23 26 27 30 35
61 59 58 59 59 64 92 100 100 94 83 63 50 45 41 39 35 28 26 25 24 19 20 19 15 16 17 17 17 14 10 10 12 9 9 14 16 18 19 20 26 29 33
60 63 58 69 93 100 94 84 69 52 47 43 36 32 29 28 26 24 23 21 18 15 16 16 16 12 10 11 11 11 10 9 8 7 6 8 10 16 14 17 19 23 26
61 60 74 70 66 58 49 47 43 38 37 35 36 34 33 30 30 25 20 17 14 13 11 9 9 8 8 8 9 8 7 6 6 7 6 6 10 11 12 13 16 20 21
60 64 52 45 48 42 38 36 42 48 44 39 41 34 29 25 17 14 12 10 8 8 8 10 10 8 7 6 5 5 5 4 4 4 5 8 9 11 12 11 12 13 17
52 42 40 35 34 49 51 52 49 45 35 33 27 24 18 13 11 9 8 8 8 8 7 6 6 6 6 6 6 5 5 4 4 5 6 6 7 7 6 6 6 6 6
40 33 33 50 60 77 71 61 51 41 31 25 17 12 10 8 7 7 6 6 6 5 5 5 5 5 5 5 6 6 6 5 5 5 6 8 7 7 6 6 6 6 8
38 47 55 62 67 66 66 51 38 24 19 14 12 9 7 7 6 5 4 4 4 4 4 5 4 5 5 5 6 7 8 8 8 8 7 7 8 9 8 7 10 8 9
47 54 59 67 82 71 52 31 22 14 11 11 7 6 6 5 4 4 3 3 3 4 4 4 4 4 5 5 5 6 7 7 8 9 8 9 10 10 11 10 11 9 9
56 60 65 77 62 41 28 17 12 10 6 6 6 6 5 4 3 3 3 3 3 3 3 3 4 4 4 4 4 5 6 7 6 7 7 7 10 11 11 11 10 11 13
67 69 68 59 44 24 13 10 8 6 6 6 5 4 4 3 3 3 3 3 2 2 2 2 3 3 4 3 3 5 6 6 7 7 8 8 10 10 11 11 12 14 16
71 69 58 44 23 11 10 7 6 7 6 4 3 3 3 3 4 3 2 2 2 2 2 2 3 3 3 3 3 5 5 6 7 7 7 10 13 12 12 13 15 16 16
68 58 50 23 11 10 8 7 7 5 4 3 3 3 4 4 3 3 2 2 2 2 3 3 3 4 3 3 4 4 5 6 6 7 9 12 10 10 11 14 16 16 16
65 46 27 14 8 8 8 8 5 4 3 3 3 3 4 4 4 3 3 3 3 3 3 4 4 4 4 4 4 5 5 6 6 8 10 10 11 11 12 16 17 16 15
40 21 13 7 8 8 8 6 5 4 4 3 3 3 3 3 3 3 3 2 2 3 4 4 4 4 4 5 5 5 6 6 7 8 9 11 12 13 18 19 19 20 24
24 14 7 7 7 8 5 4 5 6 5 4 3 3 3 4 3 2 2 2 2 3 4 5 5 6 5 5 6 6 7 8 8 9 10 12 15 20 21 21 24 29 26
12 7 6 7 8 6 4 5 5 5 5 5 4 3 4 3 2 2 2 2 2 3 4 6 6 6 6 6 7 8 8 9 10 10 12 18 22 20 16 14 18 21 20
7 6 7 8 7 4 5 5 5 5 4 4 4 4 3 2 2 2 2 2 2 3 4 6 7 8 7 7 8 8 9 10 11 15 22 25 28 23 20 20 20 24 33
7 6 7 7 5 4 5 5 5 4 4 4 4 3 3 2 2 3 2 2 2 3 4 6 7 8 8 8 9 10 11 12 17 26 27 24 21 19 16 21 40 45 50
6 6 6 5 4 4 4 5 4 4 4 4 3 2 3 4 4 4 4 3 3 3 4 5 8 9 9 10 11 12 13 17 21 23 20 17 21 26 38 45 52 75 78
7 6 5 4 5 5 5 5 4 4 5 3 2 3 4 5 5 5 5 4 4 4 4 6 9 11 12 12 13 14 16 17 16 16 23 36 52 59 61 71 71 73 75
6 5 4 5 5 5 5 4 4 4 3 2 3 4 4 4 5 6 6 5 5 4 6 9 12 13 14 14 14 15 16 18 24 39 48 62 58 67 80 80 76 74 66
5 4 5 5 5 5 4 4 4 3 2 2 4 4 3 3 4 6 6 6 5 5 8 12 14 15 16 17 17 23 30 36 48 63 73 80 81 75 62 59 58 48 37
5 5 5 5 5 4 4 4 3 2 3 4 4 3 3 3 4 5 6 6 5 7 11 15 16 19 19 23 31 42 46 54 74 79 74 68 65 57 54 47 38 29 26
5 5 5 5 4 4 4 3 3 3 3 3 3 3 3 4 4 6 7 7 6 10 15 17 20 21 25 35 45 52 66 81 85 77 70 66 60 51 42 34 28 28 26
Wind_Speed
64 67 70 73 78 82 85 89 93 98 102 105 109 112 116 120 124 126 130 132 135 136 138 137 137 137 136 137 136 132 131 131 125 112 115 114 116 116 116 116 113 108 108
69 73 78 81 85 90 95 99 102 104 109 114 118 121 125 127 129 132 134 136 138 138 139 140 143 140 136 132 130 129 127 125 116 109 106 108 111 112 109 107 106 101 101
77 80 84 89 94 97 101 105 109 112 116 117 121 124 126 129 134 139 141 142 143 144 146 142 136 137 139 134 132 128 119 115 110 103 94 98 102 107 102 99 99 98 96
82 87 92 96 98 102 106 110 114 114 118 119 124 129 134 138 142 145 147 148 146 143 140 140 140 136 130 126 121 116 112 106 101 95 89 86 89 90 89 90 90 90 89
89 95 98 102 106 109 108 110 113 117 121 126 128 132 135 141 142 141 145 145 143 142 140 129 124 121 118 112 105 104 100 96 92 88 87 82 81 80 79 83 84 87 86
97 101 104 101 100 106 111 115 117 120 124 128 129 132 135 145 149 144 142 138 128 122 116 112 110 108 106 103 99 94 88 84 81 81 78 76 75 75 76 77 79 81 79
100 97 97 101 104 108 111 115 120 124 128 128 133 138 136 139 140 135 125 118 111 108 104 102 102 102 99 96 90 88 82 79 74 71 70 71 68 75 76 75 75 74 74
96 98 100 102 109 113 118 123 125 127 128 132 132 140 136 131 124 118 113 108 105 102 99 97 96 92 91 89 84 81 81 79 78 72 65 63 66 68 70 70 69 68 66
96 100 105 110 114 119 124 127 127 127 128 133 136 131 123 117 114 112 108 102 97 94 93 92 91 84 81 79 75 69 68 71 72 65 61 58 58 63 66 62 61 60 58
105 107 111 114 118 126 127 127 128 131 136 132 122 116 113 110 108 103 99 95 90 86 84 85 83 79 74 73 69 63 61 63 64 64 58 54 51 52 54 54 55 53 51
108 112 118 122 125 128 127 128 133 134 124 114 109 108 107 105 99 97 93 88 82 76 76 75 75 73 69 67 62 57 55 56 60 58 57 51 47 45 46 47 46 46 46
114 117 122 126 127 127 126 129 126 117 109 108 106 102 100 97 94 90 87 83 78 70 67 67 67 66 64 61 55 51 50 49 51 52 50 49 42 39 40 40 39 40 40
118 121 125 126 124 124 124 118 111 111 107 103 99 94 92 89 88 86 83 81 75 70 66 64 63 62 60 56 49 48 46 44 44 45 44 40 37 37 36 37 35 36 36
123 126 128 123 122 120 114 111 110 108 101 96 91 88 86 83 81 81 81 78 75 69 64 58 56 55 53 48 44 44 40 39 39 38 35 32 33 30 28 30 33 32 31
128 127 122 120 116 109 108 110 106 102 95 88 83 82 80 81 81 79 75 71 67 63 59 54 50 47 44 41 39 36 34 32 30 28 30 31 29 29 26 26 26 26 27
126 119 117 114 108 105 104 100 101 95 94 89 83 80 79 77 77 74 66 62 59 55 52 49 45 40 37 33 32 30 27 26 25 24 24 24 25 24 21 20 21 21 22
121 117 113 108 103 103 99 92 87 90 92 93 87 83 78 74 72 67 59 52 47 48 44 43 38 33 29 27 25 23 22 22 22 21 19 19 19 18 18 19 19 18 18
116 111 106 103 101 97 91 88 86 84 85 90 91 82 74 69 65 58 52 45 38 39 39 36 31 26 23 21 20 19 18 18 17 16 14 13 14 15 15 15 15 16 20
113 108 104 102 98 92 88 85 83 83 83 82 81 78 67 62 55 48 47 39 34 32 31 29 25 20 17 15 15 15 14 13 11 10 10 11 11 13 14 14 16 18 21
111 105 101 97 91 87 85 82 81 81 80 77 72 66 60 58 50 42 41 35 31 28 25 22 20 16 12 10 10 10 9 7 6 7 9 10 11 11 13 15 18 21 25
105 100 97 91 87 84 82 80 80 78 76 72 66 57 52 50 47 37 35 32 28 23 19 17 14 11 8 6 5 5 5 8 10 11 10 10 10 10 13 16 20 27 31
100 96 90 86 84 83 80 79 76 72 69 64 58 53 49 44 41 35 32 29 24 18 13 11 9 7 4 4 6 9 11 11 10 10 9 9 10 13 15 19 21 22 25
96 89 85 84 82 79 77 75 72 68 61 55 51 49 44 37 35 30 28 24 19 13 9 7 5 4 5 7 10 12 12 11 11 11 10 10 10 11 13 15 18 23 27
88 84 83 81 80 76 74 71 68 63 55 50 46 43 37 31 28 24 22 18 14 9 7 6 6 7 9 12 11 13 13 12 12 11 7 7 9 10 12 18 22 23 26
84 82 81 79 76 73 71 69 64 57 52 44 38 35 29 26 22 20 16 13 9 7 8 7 9 11 15 16 16 16 17 15 12 9 5 3 7 13 18 20 23 28 30
84 81 80 76 72 70 66 62 57 54 47 36 33 29 24 21 19 15 12 9 9 11 11 12 13 16 19 20 19 18 17 15 10 3 2 8 15 19 23 27 29 29 24
Wind_Direction
292 291 290 289 289 290 291 292 292 292 292 292 292 292 292 291 290 290 289 290 291 291 292 293 292 292 291 289 289 288 287 287 288 287 285 284 282 282 281 281 281 277 276
290 292 293 294 295 295 295 294 294 295 294 294 292 291 291 291 291 291 291 291 293 293 293 294 293 293 294 293 293 291 291 289 287 286 283 281 281 281 280 277 277 277 275
294 295 296 297 296 297 296 295 294 293 293 294 294 293 294 293 292 294 294 295 295 295 296 297 297 295 293 291 291 291 291 290 287 288 283 281 280 279 277 275 273 274 274
295 295 295 296 294 293 292 292 293 293 294 293 294 294 294 295 295 296 296 298 299 298 297 295 293 294 294 292 290 290 290 292 290 288 285 282 278 276 272 272 271 270 270
294 295 294 294 294 295 296 296 295 296 296 295 295 296 296 297 297 297 298 299 297 296 296 296 294 292 292 291 290 289 289 288 286 284 283 279 277 273 270 268 265 265 267
296 295 296 297 297 296 298 298 297 298 296 297 298 298 297 299 300 299 297 297 297 296 295 294 292 291 291 290 290 290 288 286 283 281 281 277 276 272 268 266 263 261 261
296 298 297 298 299 300 300 300 299 300 298 299 299 299 299 299 298 298 298 299 298 296 294 293 292 291 292 291 290 290 290 288 283 277 277 277 274 272 269 268 265 265 263
297 299 300 302 304 305 303 303 302 303 302 301 301 301 300 299 299 299 299 298 297 297 295 294 292 290 290 289 289 291 290 288 285 282 276 271 271 269 269 268 269 269 265
303 304 304 304 305 305 306 307 306 304 304 304 303 303 302 301 300 299 298 298 297 297 295 293 291 289 287 286 286 288 288 287 289 286 280 273 267 266 266 267 266 267 263
302 304 304 304 307 309 309 307 307 306 304 303 303 302 302 301 300 300 299 299 297 295 293 290 289 288 287 287 287 289 288 288 286 285 283 281 278 270 265 264 263 262 257
304 305 307 309 310 310 308 307 305 303 305 304 304 304 303 303 302 301 300 300 298 296 293 291 290 290 290 289 289 288 285 285 284 283 283 281 278 271 266 261 257 256 257
307 308 311 312 311 309 307 304 304 304 306 307 307 307 305 303 303 302 301 301 300 300 296 293 291 292 291 291 291 288 283 282 282 282 279 279 277 271 265 261 256 253 252
308 310 312 312 309 308 306 306 308 308 309 308 307 307 305 305 304 303 303 304 305 303 298 294 293 291 289 289 290 286 282 280 281 280 276 278 273 270 266 261 256 252 252
312 312 312 309 307 308 309 310 310 309 309 308 307 307 306 305 306 307 307 308 308 304 302 299 294 291 288 288 285 283 281 276 281 277 274 271 273 272 269 262 255 254 254
313 311 309 308 309 311 312 312 310 310 308 307 307 307 309 311 311 309 310 309 306 305 303 301 297 292 287 284 283 282 277 273 280 276 268 270 270 272 266 260 255 253 251
313 310 309 310 312 313 313 312 312 311 310 310 312 312 314 314 312 311 311 308 305 302 302 301 300 295 288 282 279 278 273 269 273 273 271 269 268 268 263 257 254 253 251
311 311 312 312 314 314 313 312 312 313 313 313 315 316 318 316 313 313 312 308 305 302 302 302 302 299 292 284 279 277 273 268 270 272 268 264 261 254 251 249 248 246 252
311 312 313 314 316 313 313 314 315 314 315 314 315 317 318 315 314 316 312 312 306 301 301 303 304 300 293 286 278 272 269 265 266 263 257 248 242 242 244 250 257 266 269
314 314 315 316 314 314 315 316 316 315 314 314 315 316 316 313 316 318 313 316 306 299 298 301 304 300 295 286 269 262 260 260 253 239 228 228 236 240 249 257 262 258 261
314 314 314 314 314 316 317 316 315 315 314 314 315 314 313 313 317 318 314 315 307 301 298 299 299 298 299 280 261 251 250 237 204 197 205 218 234 246 252 255 261 266 267
313 313 313 314 316 317 317 316 316 316 314 315 313 312 310 311 315 317 314 311 308 303 297 293 292 295 286 261 235 206 181 174 178 188 204 217 228 237 248 256 261 263 268
313 313 313 315 317 318 317 315 314 314 313 313 310 309 309 311 311 311 309 309 309 305 296 286 283 281 251 205 168 157 160 168 173 179 181 199 222 241 251 256 267 282 288
313 314 316 318 318 317 315 314 314 314 313 309 306 306 308 311 303 305 302 306 306 298 279 265 250 215 186 156 152 148 150 148 151 162 180 209 230 247 267 282 288 290 296
313 315 317 317 317 317 315 314 314 313 309 308 308 306 311 308 302 297 295 300 295 274 245 224 193 173 157 149 147 141 144 148 154 162 177 212 242 274 294 298 306 304 300
314 316 317 317 317 316 315 314 313 310 309 314 308 307 311 306 300 290 284 285 268 220 205 187 166 156 147 148 146 143 143 146 146 162 192 267 300 313 325 327 324 323 320
316 317 317 317 316 314 313 312 309 307 312 314 305 307 308 303 291 279 265 250 212 187 179 164 156 148 147 147 146 143 138 140 152 149 337 335 342 345 342 339 336 330 323